User: anonymous
Location: Fort Wayne
(41.1310°N, 85.1290°W)
Time: 09:59:40
(UTC-04:00)
Language:

Cosmos 2082 - Orbit

View from above orbital plane
View from above orbital plane
View from above satellite
View from above satellite

Ground track
Ground track

The orbit data is extracted from the following two-line orbital elements,

1 20624U 90046A   14261.77802069  .00000014  00000-0  32097-4 0   122
2 20624 071.0395 152.5015 0013108 119.5849 332.9726 14.14085938255489
Epoch (UTC): 18 September 2014 18:40:20
Eccentricity: 0.0013108
inclination: 71.0395°
perigee height: 836 km
apogee height: 855 km
right ascension of ascending node: 152.5015°
argument of perigee: 119.5849°
revolutions per day: 14.14085938
mean anomaly at epoch: 332.9726°
orbit number at epoch: 25548

The dashed part of the orbit path shows where the satellite is in the earth's shadow,  

DLR